[[{"header":{"parameterUnit":"m.s-1","parameterCategory":1,"la1":30.2991,"la2":30.254,"lo1":-89.0895,"lo2":-89.0444,"dy":0.0017,"dx":0.0017,"nx":28,"ny":28,"refTime":"2025-06-17T09:00:00:Z","depth":0,"parameterNumber":2,"parameterNumberName":"U-component_of_WINDS"},"data":[0,0,0,0,0,0,0,0,0,0,0,0,0,0,0,0,0,0,0,0,0,0,0,0,0,0,0,0,0,0,0,0,0,0,0,0,0,0,0,0,0,0,0,0,0,0,0,0,0,0,0,0,0,0,0,0,0,0,1.4305,1.4305,0,1.4298,1.4298,1.4298,1.4249,1.4248,1.4247,1.4245,1.4239,1.424,1.4241,0,0,0,0,0,0,0,0,0,0,0,0,0,1.4274,1.4275,1.4305,1.4305,1.4305,1.4298,1.4298,1.4298,1.4249,1.4248,1.4246,1.4245,1.4239,1.424,1.4241,0,0,0,0,0,0,0,0,0,0,0,0,0,1.428,1.4275,1.4305,1.428,1.4277,1.4298,1.4298,1.4298,1.4249,1.4248,1.4246,1.4244,1.4239,1.424,1.4241,1.4286,0,0,1.4246,1.4246,0,0,0,0,0,0,0,0,1.4279,1.4281,1.4284,1.4282,1.4279,1.4273,1.4285,1.4294,1.425,1.426,1.4245,1.4243,1.4252,1.4252,1.4255,1.4286,1.4286,1.4246,1.4247,1.4247,1.4248,0,0,0,0,0,0,0,1.4279,1.4281,1.4302,1.4284,1.4281,1.4268,1.4267,1.4286,1.4266,1.4259,1.4256,1.4255,1.425,1.4254,1.4254,1.4286,1.4246,1.4247,1.4248,1.4249,1.4349,1.4351,0,0,0,0,0,0,1.4282,1.4281,1.4303,1.4302,1.4275,1.427,1.4269,1.4276,1.4266,1.4263,1.4257,1.4253,1.4252,1.4253,1.4254,1.4302,1.4247,1.4249,1.425,1.4347,1.435,1.4352,0,0,0,0,0,0,1.4282,1.4285,1.4303,1.429,1.4292,1.4273,1.4282,1.4277,1.428,1.4264,1.426,1.4264,1.4251,1.4252,1.4278,1.4302,1.4249,1.4251,1.4345,1.4348,1.4351,1.4402,0,0,0,0,0,0,1.4281,1.4285,1.4302,1.4291,1.4293,1.4327,1.4283,1.4278,1.4283,1.4278,1.427,1.4267,1.4249,1.4276,1.4279,1.4303,1.4252,1.4343,1.4346,1.435,1.4398,1.4407,1.4414,0,0,0,0,0,1.428,1.4318,1.4304,1.4306,1.4314,1.4329,1.433,1.4308,1.4285,1.4302,1.4291,1.4267,1.4299,1.4279,1.4282,1.4307,1.4341,1.4345,1.4349,1.4395,1.4405,1.4413,0,0,0,0,0,0,1.4334,1.4317,1.43,1.4336,1.4334,1.4321,1.4341,1.432,1.4326,1.4321,1.4294,1.4293,1.4322,1.4317,1.4295,1.4348,1.4316,1.4321,1.4349,1.4359,1.4366,1.4366,1.4253,0,0,0,0,0,1.435,1.4363,1.4348,1.4381,1.438,1.4361,1.4367,1.435,1.4348,1.4347,1.4338,1.4336,1.4345,1.4352,1.436,1.4398,1.4394,1.4416,1.4424,1.443,1.4434,1.445,1.4459,1.4365,1.4365,1.4365,0,0,1.4383,1.4375,1.4386,1.4391,1.4388,1.4401,1.4361,1.4378,1.4387,1.435,1.4372,1.4366,1.4362,1.4393,1.4406,1.439,1.4459,1.4435,1.444,1.4441,1.4455,1.4464,1.4472,1.4368,1.4367,1.4367,0,0,1.4449,1.4446,1.4471,1.4468,1.4463,1.445,1.4456,1.4445,1.4438,1.4461,1.4432,1.4442,1.446,1.4457,1.4458,1.4521,1.4498,1.4524,1.4563,1.4579,1.4586,1.4592,1.4612,1.4619,1.4529,1.4529,1.4529,0,1.4491,1.451,1.4487,1.4504,1.4506,1.4472,1.4496,1.4495,1.4493,1.4495,1.4476,1.4495,1.449,1.4518,1.4533,1.4536,1.4541,1.4524,1.4587,1.4593,1.4599,1.4617,1.4624,1.4532,1.4531,1.4531,1.4531,0,1.456,1.4574,1.4595,1.4592,1.4596,1.4618,1.4596,1.4603,1.4586,1.4574,1.4596,1.4589,1.4593,1.4599,1.4583,1.4624,1.4613,1.4592,1.4559,1.4611,1.4627,1.4634,1.4536,1.4535,1.4534,1.4533,0,0,1.466,1.4642,1.465,1.4647,1.4638,1.4647,1.4666,1.4669,1.4674,1.4674,1.4687,1.4702,1.468,1.4681,1.4665,1.4679,1.4725,1.4655,1.4655,1.4666,1.4766,1.478,1.4788,1.471,1.4712,1.4713,1.4765,0,1.4721,1.4751,1.4729,1.4763,1.4773,1.4739,1.4755,1.4751,1.474,1.4746,1.4734,1.4743,1.4717,1.4716,1.4729,1.4717,1.4744,1.4713,1.4721,1.4721,1.472,1.4797,1.4813,1.4863,1.4771,1.4772,1.4773,0,1.4797,1.4797,1.4831,1.4816,1.482,1.4834,1.4833,1.4841,1.4835,1.4825,1.4825,1.4804,1.482,1.4789,1.4809,1.4788,1.479,1.4784,1.4785,1.4783,1.4749,1.4795,1.4878,1.4885,1.4784,1.4783,1.4782,0,1.4862,1.4872,1.4892,1.4891,1.4875,1.4885,1.488,1.4871,1.4873,1.4873,1.4873,1.4876,1.4876,1.4878,1.4857,1.4837,1.4879,1.4847,1.487,1.487,1.4878,1.4878,1.4961,1.4884,1.4884,1.4884,1.4884,0,1.4931,1.4952,1.492,1.4933,1.4955,1.4929,1.4952,1.4942,1.4935,1.4944,1.4916,1.4925,1.4898,1.4904,1.4889,1.4905,1.4907,1.4899,1.4894,1.4899,1.49,1.4899,1.4894,1.4886,1.4886,1.4885,1.4885,0,1.5007,1.4987,1.5006,1.4989,1.4985,1.5002,1.4987,1.4997,1.4983,1.4995,1.4996,1.4975,1.498,1.496,1.4963,1.4952,1.4976,1.4967,1.4978,1.4974,1.4997,1.4994,1.508,1.5088,1.5009,1.501,1.5011,0,1.5051,1.5065,1.5049,1.5052,1.5047,1.5054,1.5055,1.5031,1.5033,1.5025,1.5035,1.5038,1.5039,1.5049,1.5033,1.5034,1.5023,1.5053,1.5023,1.5027,1.502,1.5018,1.5018,1.5059,1.506,1.5061,1.5061,0,1.5129,1.5118,1.5121,1.5119,1.5121,1.5119,1.5115,1.512,1.5093,1.5097,1.5101,1.5101,1.5102,1.5105,1.5102,1.5095,1.5073,1.5071,1.5076,1.5081,1.5085,1.508,1.4992,1.5069,1.5068,1.5067,1.5067,1.5067,1.5188,1.5198,1.5187,1.5191,1.5185,1.5181,1.5188,1.5175,1.5178,1.5176,1.5162,1.5168,1.5158,1.5152,1.5148,1.5152,1.5137,1.5145,1.5147,1.5148,1.5151,1.5086,1.5152,1.5151,1.5151,1.5151,1.5151,0,1.5262,1.5253,1.5256,1.525,1.5252,1.5231,1.5225,1.5228,1.5233,1.5226,1.5227,1.523,1.5232,1.5216,1.5215,1.5221,1.5211,1.5221,1.5219,1.5218,1.5165,1.516,1.523,1.523,1.523,1.523,1.523,1.523,1.5301,1.5316,1.5303,1.5315,1.5305,1.531,1.5308,1.5304,1.5298,1.5302,1.5303,1.5292,1.5281,1.5279,1.5279,1.5274,1.5274,1.5287,1.5279,1.523,1.5222,1.5214,1.5209,1.5288,1.5288,1.533,1.5331,1.5331]},{"header":{"parameterUnit":"m.s-1","parameterCategory":1,"la1":30.2991,"la2":30.254,"lo1":-89.0895,"lo2":-89.0444,"dy":0.0017,"dx":0.0017,"nx":28,"ny":28,"refTime":"2025-06-17T09:00:00:Z","depth":0,"parameterNumber":3,"parameterNumberName":"V-component_of_WINDS"},"data":[0,0,0,0,0,0,0,0,0,0,0,0,0,0,0,0,0,0,0,0,0,0,0,0,0,0,0,0,0,0,0,0,0,0,0,0,0,0,0,0,0,0,0,0,0,0,0,0,0,0,0,0,0,0,0,0,0,0,4.8892,4.8892,0,4.8927,4.8927,4.8927,4.886,4.8858,4.8856,4.8854,4.8888,4.8891,4.8894,0,0,0,0,0,0,0,0,0,0,0,0,0,4.8763,4.8766,4.8892,4.8892,4.8892,4.8926,4.8927,4.8927,4.8861,4.8858,4.8855,4.8853,4.8887,4.8891,4.8894,0,0,0,0,0,0,0,0,0,0,0,0,0,4.8811,4.8767,4.8891,4.8863,4.8861,4.8926,4.8927,4.8928,4.8861,4.8858,4.8855,4.8852,4.8886,4.889,4.8895,4.8988,0,0,4.8908,4.891,0,0,0,0,0,0,0,0,4.8808,4.8815,4.8867,4.8865,4.8863,4.8886,4.8894,4.8948,4.8862,4.8861,4.8854,4.885,4.889,4.8894,4.8908,4.899,4.8991,4.8909,4.8911,4.8913,4.8915,0,0,0,0,0,0,0,4.8805,4.8813,4.8905,4.8868,4.8865,4.8848,4.8851,4.8904,4.8894,4.8861,4.8856,4.8862,4.8888,4.8904,4.8908,4.8992,4.8909,4.8913,4.8915,4.8917,4.9148,4.9151,0,0,0,0,0,0,4.8805,4.8811,4.8904,4.8906,4.8827,4.8853,4.8856,4.8882,4.8893,4.8891,4.8864,4.8858,4.8898,4.8903,4.8909,4.9015,4.8913,4.8917,4.892,4.9144,4.9149,4.9152,0,0,0,0,0,0,4.8803,4.8814,4.8903,4.8857,4.8867,4.8858,4.8888,4.8884,4.8899,4.8895,4.8893,4.8882,4.8895,4.8903,4.8968,4.9016,4.8919,4.8923,4.914,4.9146,4.9151,4.9232,0,0,0,0,0,0,4.8799,4.8814,4.8851,4.8859,4.887,4.8963,4.8891,4.8887,4.8907,4.89,4.8911,4.891,4.8893,4.8962,4.8973,4.902,4.8927,4.9136,4.9143,4.9149,4.9225,4.9239,4.9251,0,0,0,0,0,4.8795,4.8873,4.8853,4.8864,4.8916,4.8966,4.8972,4.8952,4.8912,4.8947,4.8944,4.891,4.901,4.8969,4.8981,4.903,4.9133,4.9141,4.9148,4.9219,4.9236,4.9251,0,0,0,0,0,0,4.8871,4.8873,4.8851,4.8934,4.895,4.8955,4.8999,4.8972,4.8999,4.8991,4.8963,4.8967,4.9036,4.904,4.8995,4.9119,4.9064,4.9075,4.9114,4.913,4.9143,4.914,4.8931,0,0,0,0,0,4.8897,4.8938,4.8938,4.9011,4.902,4.9009,4.903,4.9012,4.9027,4.9034,4.9036,4.9051,4.9085,4.9109,4.914,4.9226,4.9225,4.9265,4.9279,4.929,4.9298,4.9339,4.9356,4.9178,4.9178,4.9178,0,0,4.8952,4.8958,4.8986,4.9027,4.9037,4.9078,4.9015,4.9062,4.9092,4.9041,4.9102,4.9104,4.9119,4.9194,4.9227,4.9199,4.9347,4.93,4.9308,4.9311,4.9349,4.9366,4.9381,4.9183,4.9182,4.9181,0,0,4.9072,4.9083,4.9142,4.9154,4.917,4.9161,4.9175,4.9183,4.9182,4.9243,4.9204,4.9239,4.93,4.9311,4.9325,4.9446,4.9414,4.9457,4.9526,4.9566,4.958,4.9592,4.9631,4.9646,4.9466,4.9466,4.9467,0,4.9138,4.9199,4.9177,4.9226,4.9243,4.9198,4.9257,4.9269,4.9295,4.9307,4.9276,4.9348,4.9356,4.943,4.946,4.9474,4.9487,4.9454,4.958,4.9592,4.9603,4.964,4.9655,4.9471,4.9471,4.947,4.947,0,4.9277,4.932,4.9366,4.9391,4.9413,4.9467,4.9451,4.9477,4.9457,4.945,4.9511,4.9518,4.9549,4.9566,4.9548,4.9637,4.9618,4.9585,4.9528,4.9625,4.9659,4.9674,4.9478,4.9476,4.9475,4.9474,0,0,4.9446,4.9455,4.9472,4.9481,4.9494,4.9526,4.9577,4.9606,4.9626,4.9646,4.9685,4.9737,4.9704,4.9719,4.9702,4.9738,4.9828,4.9699,4.9699,4.9719,4.9922,4.9945,4.9962,4.9808,4.9811,4.9813,4.992,0,4.9561,4.9648,4.9627,4.9712,4.9749,4.9706,4.975,4.9761,4.9757,4.9786,4.9781,4.9816,4.9773,4.9781,4.9815,4.981,4.9868,4.9803,4.9842,4.9843,4.9836,4.9981,5.0006,5.0106,4.9933,4.9936,4.9937,0,4.9708,4.973,4.9819,4.9822,4.9837,4.9876,4.9899,4.9929,4.9941,4.9934,4.9951,4.9925,4.9973,4.9918,4.9981,4.9937,4.9952,4.9952,4.9955,4.9955,4.9894,4.9981,5.0138,5.0151,4.9959,4.9957,4.9956,0,4.9817,4.987,4.9928,4.9937,4.9944,4.9971,4.9976,4.9984,5.0002,5.0022,5.0032,5.0059,5.0073,5.0093,5.0074,5.0037,5.0139,5.0084,5.0132,5.0133,5.0153,5.0152,5.0311,5.017,5.0169,5.0169,5.0169,0,4.9946,5.0,4.9976,5.0011,5.007,5.0046,5.0104,5.0103,5.011,5.0143,5.011,5.0141,5.0116,5.0145,5.0132,5.0184,5.0191,5.0185,5.018,5.0186,5.0187,5.0193,5.0185,5.0173,5.0172,5.0171,5.0171,0,5.0076,5.0063,5.0122,5.0123,5.0124,5.0167,5.0167,5.0198,5.0191,5.0233,5.0241,5.0229,5.0261,5.0245,5.0279,5.027,5.0336,5.0323,5.0331,5.0327,5.0375,5.0369,5.0541,5.0561,5.041,5.0412,5.0413,0,5.0158,5.0198,5.0202,5.0222,5.0227,5.026,5.0277,5.0254,5.0273,5.0287,5.0317,5.0346,5.0367,5.042,5.0414,5.0439,5.0424,5.0483,5.0428,5.0431,5.042,5.0416,5.0418,5.0493,5.0495,5.0496,5.0497,0,5.0303,5.0293,5.0319,5.0342,5.0363,5.038,5.0395,5.0412,5.039,5.0412,5.0444,5.0461,5.0494,5.0522,5.0543,5.0546,5.0517,5.0515,5.0527,5.0531,5.0533,5.0529,5.0357,5.051,5.0509,5.0508,5.0507,5.0507,5.0409,5.0441,5.0447,5.0476,5.0484,5.0497,5.0526,5.0521,5.0547,5.0571,5.0557,5.0593,5.06,5.0625,5.0632,5.0659,5.0635,5.0654,5.0658,5.0661,5.0666,5.0531,5.0663,5.0663,5.0663,5.0662,5.0662,0,5.0548,5.0549,5.0576,5.0596,5.0618,5.0589,5.0603,5.0623,5.0655,5.0664,5.0685,5.072,5.0747,5.0742,5.0765,5.0788,5.0775,5.0794,5.079,5.0791,5.0688,5.0673,5.0804,5.0804,5.0804,5.0804,5.0804,5.0804,5.0623,5.0674,5.0665,5.0718,5.0719,5.0754,5.0763,5.0775,5.0781,5.0821,5.0843,5.0839,5.0842,5.0865,5.0887,5.0885,5.0893,5.0917,5.091,5.0813,5.0799,5.0785,5.0771,5.092,5.092,5.1009,5.101,5.1011]}]]